Wind_Speed
6 5 3 3 2 2 2 1 2 2 2 2 2 2 1 1 0 0 0 1 2 3 4 5 5 5 6 6 7 7 7 8 7 7 6 6 6 6 5 5 5 5 5
7 5 4 4 2 1 1 0 1 1 2 2 2 2 2 1 1 1 0 1 2 3 3 4 5 5 6 7 7 7 8 8 8 8 8 7 7 7 6 6 6 6 6
8 7 5 5 3 2 1 0 0 1 1 2 2 2 2 1 1 1 1 1 1 2 2 3 4 5 6 6 7 7 7 8 9 8 8 8 8 8 8 7 7 7 7
9 8 7 6 5 3 2 1 0 1 2 2 2 2 2 2 2 2 2 2 1 1 1 2 3 3 5 6 6 7 7 8 8 9 9 9 9 9 9 9 8 8 8
10 9 8 7 6 4 3 2 0 0 1 2 2 1 2 2 2 2 2 2 2 1 0 1 1 2 3 4 5 6 6 7 8 8 8 9 9 10 10 10 10 10 10
10 10 9 8 7 5 4 2 1 1 0 1 1 1 2 2 2 2 2 2 2 2 1 1 1 1 2 3 4 4 6 6 7 8 8 8 9 10 10 10 11 11 11
12 11 10 9 8 7 5 4 3 2 1 1 1 1 2 2 2 2 2 2 2 2 2 2 1 1 2 2 3 4 5 6 6 6 7 8 9 9 10 11 11 11 12
13 12 11 11 10 8 6 5 4 3 2 2 1 1 1 1 1 1 1 1 1 2 2 2 2 2 1 2 2 3 4 4 6 7 7 8 8 9 10 11 11 11 12
14 14 13 11 10 9 8 6 5 4 3 3 3 2 1 1 1 1 0 0 1 1 2 2 2 2 2 2 3 3 4 5 6 7 8 8 9 9 11 11 12 12 12
15 14 14 12 11 10 9 8 7 6 5 4 4 3 2 2 1 1 1 1 1 1 2 2 2 3 3 4 4 4 5 6 6 7 7 8 9 10 10 11 12 12 13
15 15 14 13 12 11 10 9 9 7 7 6 6 5 4 3 2 2 2 2 2 2 3 3 3 4 4 5 5 6 6 6 7 8 8 9 9 10 11 12 13 13 14
16 15 15 14 13 12 12 11 10 9 9 8 8 7 6 5 5 4 4 4 4 4 5 5 6 6 6 6 7 7 7 8 9 9 10 10 11 12 13 14 14 14 15
16 16 16 15 14 13 12 11 11 11 10 10 10 10 9 8 7 7 6 6 6 7 7 7 8 8 8 8 9 9 10 10 10 11 12 12 13 14 14 15 16 16 17
17 17 18 17 16 15 14 13 12 12 12 12 12 12 11 11 10 10 10 10 10 10 10 10 10 11 11 11 11 12 12 13 13 13 14 15 15 16 16 16 17 18 19
19 18 19 18 17 16 15 15 14 14 14 14 14 14 14 13 13 13 13 13 13 13 13 14 14 14 14 14 15 15 15 15 16 16 17 18 18 18 19 19 19 20 21
19 19 20 20 19 18 17 16 16 16 16 16 16 15 15 15 15 16 16 16 16 16 16 17 17 17 17 17 18 18 19 19 20 20 21 21 22 22 23 23 23 23 23
19 19 20 20 20 20 19 19 18 18 18 18 18 19 18 18 19 19 19 19 19 19 19 20 20 20 20 20 21 22 22 23 24 24 24 25 25 26 26 26 26 26 27
19 20 21 21 22 22 21 20 20 20 20 20 21 21 21 22 22 22 22 22 22 22 22 22 22 23 23 24 24 25 25 26 27 27 27 27 28 28 29 29 30 30 30
18 20 21 22 23 23 22 21 21 21 22 22 22 22 23 23 23 24 24 24 24 24 24 24 25 25 26 27 27 28 28 29 30 30 31 31 32 32 33 33 33 33 34
18 19 21 22 22 22 22 22 22 23 23 23 23 23 23 23 24 24 25 26 26 26 27 27 27 28 29 30 30 31 31 32 32 33 33 34 35 36 36 37 37 38 38
18 19 20 21 22 22 23 23 22 22 23 24 24 23 24 24 25 25 26 27 28 28 29 29 29 30 31 32 33 34 34 34 35 36 36 37 37 38 39 40 41 41 42
18 20 21 22 22 22 24 24 24 24 23 24 25 25 25 26 26 27 27 28 29 30 31 31 32 33 34 35 36 36 37 37 37 38 39 40 41 41 42 43 44 44 45
19 20 21 21 21 22 23 25 25 25 25 25 26 27 28 28 28 28 29 30 31 32 33 34 35 36 37 38 38 39 40 40 40 41 42 42 43 44 45 46 47 47 48
19 20 21 22 23 23 24 24 25 26 27 27 28 28 29 30 30 31 32 33 34 35 36 37 38 39 40 41 42 42 43 43 44 45 46 46 46 47 48 49 49 50 50
20 20 23 24 25 24 25 25 25 26 27 29 29 30 32 32 33 35 36 36 37 39 40 40 41 42 43 44 44 44 45 46 47 48 49 49 49 50 50 51 52 53 54
21 22 23 24 24 25 25 26 27 29 30 30 30 31 33 33 34 35 37 38 39 40 42 43 44 44 45 45 46 47 47 48 49 50 51 52 52 53 53 52 54 55 56
Wind_Direction
223 229 246 261 284 306 315 319 348 15 26 27 24 26 40 50 69 12 241 206 210 216 220 223 225 223 219 218 218 219 221 219 219 220 221 221 223 226 230 237 242 246 251
219 219 233 241 251 267 300 2 4 24 24 16 23 33 49 51 43 32 348 209 208 216 225 228 227 225 225 224 224 223 226 226 225 228 230 229 232 233 237 244 246 250 255
215 213 221 226 225 227 226 200 59 45 29 32 39 45 59 65 57 54 65 118 180 207 220 231 234 232 227 227 229 229 230 228 228 231 235 235 238 237 239 244 250 254 258
205 209 216 214 209 206 205 195 72 36 30 51 63 65 77 86 82 77 81 88 111 183 223 239 237 236 229 229 231 231 229 231 231 235 239 241 242 242 243 247 251 256 261
204 208 206 206 203 202 205 211 253 316 28 64 75 84 99 103 99 95 91 82 75 69 354 273 251 242 228 224 227 230 232 233 234 239 243 247 249 247 248 251 255 259 261
204 207 206 204 201 202 206 216 232 238 222 107 100 104 105 107 105 105 101 84 70 53 44 21 331 267 244 236 237 238 238 240 241 243 249 253 255 252 253 256 258 260 261
203 205 205 201 201 204 209 214 226 224 211 175 141 129 128 123 107 111 106 92 66 49 34 20 6 314 273 254 250 250 244 247 249 251 255 257 258 257 256 258 262 261 261
202 203 203 201 203 207 210 214 222 214 209 206 189 158 149 143 123 125 110 87 45 28 25 15 12 4 328 285 273 268 255 255 257 260 260 263 266 263 261 260 264 264 265
203 205 203 203 207 210 213 217 220 218 220 214 209 201 188 181 171 166 178 285 326 344 356 0 349 341 330 320 307 288 275 276 279 278 274 272 273 272 266 264 265 267 267
205 206 205 207 210 214 218 221 223 226 225 218 213 214 215 210 202 198 216 268 298 323 331 333 329 324 316 312 312 307 293 289 287 287 286 283 281 277 273 269 270 269 270
208 209 210 213 216 219 222 224 226 232 230 226 224 227 228 232 244 248 248 262 275 289 296 302 305 308 308 306 304 303 296 292 290 287 284 285 283 281 278 275 275 273 272
209 212 214 217 221 224 226 227 229 232 233 232 233 235 236 237 246 253 261 269 274 279 285 290 291 294 295 297 298 299 295 291 289 287 286 286 285 283 280 278 276 275 275
213 214 216 220 223 225 225 228 231 235 236 235 236 237 239 242 247 253 260 266 272 278 282 284 285 286 288 289 291 292 294 292 291 288 286 286 285 285 285 281 278 278 277
219 221 221 225 229 229 229 231 234 237 239 238 237 239 243 246 251 256 261 265 269 275 278 280 283 284 286 286 287 287 288 288 288 286 286 286 287 286 285 285 282 279 278
225 227 227 229 231 232 232 234 237 239 243 243 242 243 247 250 254 258 262 266 270 274 277 278 280 282 283 284 283 284 284 284 284 284 283 283 284 283 282 283 284 283 281
229 231 229 230 233 236 238 238 239 242 244 245 246 248 251 254 257 261 264 267 270 273 275 278 280 281 283 284 284 283 283 284 284 284 284 283 282 282 281 281 280 279 280
231 233 233 233 236 239 241 243 244 246 248 250 251 253 255 257 259 262 265 267 270 273 275 278 280 282 283 283 284 284 284 284 284 284 284 283 283 282 281 279 279 279 279
235 237 236 237 239 241 243 246 246 247 251 253 254 256 258 259 261 263 265 268 270 273 275 276 278 280 281 282 283 284 284 284 284 284 283 282 282 281 280 279 278 278 278
240 240 240 240 242 243 245 249 251 251 254 257 258 258 260 262 264 265 266 268 270 272 273 275 276 277 279 280 282 283 284 284 285 284 283 282 281 281 280 279 279 278 278
243 243 244 243 245 246 249 251 254 255 257 259 260 261 264 266 268 268 268 270 271 272 273 275 276 277 278 280 281 282 283 283 284 283 283 282 282 281 280 279 279 278 278
247 246 245 245 247 250 251 253 257 259 259 260 262 264 266 268 269 271 271 272 273 274 275 276 276 278 280 282 282 282 282 282 282 282 283 283 282 281 281 280 279 279 278
252 252 250 249 253 256 254 257 260 262 263 263 264 265 267 268 270 272 273 274 275 276 276 276 278 280 281 282 283 283 282 282 282 282 283 283 283 282 281 281 280 280 280
257 258 255 255 257 259 261 260 260 260 262 264 265 268 269 270 270 271 272 273 275 276 277 277 278 280 281 282 283 283 283 282 281 281 282 282 282 282 282 281 281 280 280
262 260 257 257 259 263 263 263 263 263 264 265 267 270 271 270 270 272 274 275 276 277 278 278 278 279 281 283 284 283 283 283 282 282 282 282 282 282 282 281 281 281 280
260 260 259 258 259 261 263 264 265 266 266 268 269 270 270 271 273 275 276 277 277 278 279 279 280 280 281 282 283 283 283 283 283 283 282 282 282 283 282 282 281 281 280
263 261 261 260 259 261 264 265 266 267 269 270 272 272 272 273 274 275 277 278 280 281 281 280 281 281 282 282 282 282 282 282 283 283 282 283 283 283 282 282 282 282 281
Height
5882 5883 5884 5885 5886 5887 5887 5887 5887 5887 5887 5886 5886 5887 5887 5887 5887 5887 5887 5887 5887 5888 5889 5889 5890 5891 5891 5892 5893 5894 5895 5896 5897 5898 5898 5899 5900 5901 5902 5902 5903 5904 5905
5881 5882 5883 5884 5885 5886 5887 5887 5887 5887 5887 5887 5887 5887 5887 5887 5887 5887 5887 5887 5887 5888 5888 5889 5889 5890 5890 5891 5892 5893 5894 5894 5896 5897 5898 5898 5899 5900 5901 5901 5902 5903 5904
5879 5881 5883 5884 5885 5886 5887 5887 5887 5887 5887 5887 5887 5887 5887 5887 5887 5887 5887 5887 5887 5888 5888 5888 5889 5889 5890 5890 5891 5892 5893 5893 5894 5895 5896 5897 5898 5899 5899 5900 5901 5902 5902
5878 5880 5882 5883 5885 5886 5886 5887 5887 5887 5887 5887 5887 5887 5887 5888 5888 5887 5887 5888 5888 5888 5888 5888 5888 5889 5889 5890 5890 5891 5892 5892 5893 5894 5895 5896 5897 5897 5898 5899 5899 5900 5901
5877 5879 5881 5883 5884 5885 5886 5887 5887 5888 5888 5888 5887 5888 5888 5888 5888 5888 5888 5888 5888 5888 5888 5888 5888 5889 5889 5889 5890 5890 5891 5891 5892 5893 5894 5894 5895 5895 5896 5897 5898 5898 5899
5876 5878 5880 5882 5883 5885 5886 5887 5887 5887 5887 5887 5888 5888 5888 5888 5888 5889 5889 5889 5889 5889 5889 5889 5889 5889 5889 5889 5889 5890 5890 5890 5891 5892 5892 5893 5893 5894 5894 5895 5896 5896 5897
5874 5877 5879 5881 5883 5884 5885 5886 5887 5887 5887 5888 5888 5888 5888 5888 5889 5889 5889 5889 5889 5889 5889 5889 5889 5889 5889 5889 5889 5889 5889 5890 5890 5890 5891 5891 5892 5892 5892 5893 5894 5894 5894
5873 5875 5878 5880 5882 5883 5885 5886 5887 5887 5887 5888 5888 5888 5889 5889 5889 5889 5889 5890 5890 5890 5890 5889 5889 5889 5889 5889 5889 5889 5889 5889 5889 5889 5890 5890 5890 5890 5890 5891 5891 5892 5892
5871 5874 5877 5879 5881 5883 5884 5885 5886 5886 5887 5887 5888 5889 5889 5889 5889 5889 5889 5890 5890 5890 5890 5890 5889 5889 5889 5889 5889 5889 5889 5889 5888 5888 5888 5889 5888 5888 5889 5889 5889 5889 5889
5870 5873 5875 5877 5880 5881 5883 5884 5885 5886 5886 5887 5888 5888 5889 5889 5889 5889 5889 5889 5889 5890 5890 5889 5889 5889 5889 5889 5888 5888 5888 5888 5888 5887 5887 5887 5887 5887 5886 5887 5887 5887 5887
5869 5871 5873 5876 5878 5880 5881 5882 5884 5885 5885 5886 5887 5888 5888 5888 5889 5889 5889 5889 5889 5889 5889 5889 5889 5889 5889 5888 5888 5887 5887 5887 5886 5886 5886 5885 5885 5885 5884 5884 5884 5884 5884
5867 5869 5872 5874 5876 5878 5879 5881 5882 5883 5884 5885 5886 5887 5887 5888 5888 5888 5888 5888 5888 5889 5889 5888 5888 5888 5888 5887 5887 5886 5886 5885 5885 5884 5884 5883 5883 5882 5882 5881 5881 5881 5881
5865 5867 5870 5872 5874 5876 5877 5879 5880 5881 5882 5883 5884 5885 5886 5886 5886 5887 5887 5887 5887 5887 5887 5887 5887 5886 5886 5886 5885 5885 5884 5883 5883 5882 5882 5881 5880 5880 5879 5878 5878 5877 5877
5863 5865 5867 5869 5871 5873 5875 5877 5878 5879 5880 5881 5882 5883 5883 5884 5884 5885 5885 5885 5885 5886 5885 5885 5885 5884 5884 5883 5883 5882 5882 5881 5880 5880 5879 5878 5877 5876 5876 5875 5874 5874 5873
5860 5862 5864 5867 5869 5870 5872 5874 5875 5876 5878 5879 5880 5880 5881 5881 5882 5882 5883 5883 5884 5883 5883 5882 5882 5882 5881 5880 5880 5879 5878 5878 5877 5876 5875 5874 5873 5873 5872 5871 5870 5869 5868
5857 5859 5861 5863 5865 5867 5869 5871 5872 5873 5874 5875 5876 5877 5878 5878 5879 5879 5880 5880 5880 5880 5880 5879 5879 5878 5878 5877 5876 5875 5875 5874 5873 5872 5871 5870 5869 5868 5867 5866 5865 5864 5863
5853 5856 5858 5860 5862 5864 5865 5867 5868 5869 5871 5872 5872 5873 5874 5875 5875 5875 5876 5876 5876 5876 5876 5875 5875 5874 5873 5872 5871 5870 5869 5868 5867 5866 5865 5864 5863 5862 5861 5860 5858 5857 5856
5850 5852 5854 5856 5858 5860 5861 5863 5864 5865 5866 5867 5868 5869 5869 5870 5870 5871 5871 5871 5871 5871 5871 5870 5869 5868 5868 5867 5866 5865 5863 5862 5861 5860 5858 5857 5856 5855 5853 5852 5851 5850 5849
5846 5848 5850 5852 5853 5855 5857 5858 5859 5860 5861 5862 5863 5863 5864 5865 5865 5865 5865 5865 5865 5865 5865 5864 5863 5862 5861 5860 5859 5858 5857 5855 5854 5852 5851 5849 5848 5846 5845 5844 5843 5842 5841
5842 5844 5845 5847 5849 5850 5852 5853 5854 5855 5855 5856 5857 5858 5858 5859 5859 5859 5859 5859 5859 5858 5858 5857 5856 5855 5854 5853 5852 5851 5849 5847 5846 5844 5842 5841 5839 5838 5836 5835 5833 5832 5831
5838 5839 5841 5842 5844 5845 5846 5847 5848 5849 5849 5850 5851 5852 5852 5853 5852 5852 5852 5852 5852 5851 5850 5850 5849 5848 5846 5845 5844 5842 5841 5839 5837 5835 5833 5831 5829 5828 5826 5824 5823 5821 5819
5834 5835 5836 5837 5839 5840 5841 5842 5843 5844 5844 5845 5845 5846 5846 5846 5846 5845 5845 5845 5844 5843 5843 5842 5841 5839 5838 5836 5834 5833 5831 5830 5828 5825 5823 5821 5818 5816 5814 5812 5811 5809 5807
5829 5830 5831 5832 5834 5835 5836 5836 5837 5838 5838 5839 5839 5839 5839 5839 5839 5838 5838 5837 5836 5835 5834 5833 5832 5830 5828 5826 5825 5823 5821 5819 5817 5814 5812 5810 5807 5804 5802 5799 5797 5795 5794
5825 5825 5826 5827 5828 5829 5830 5830 5831 5831 5832 5832 5832 5832 5832 5831 5831 5830 5830 5828 5827 5826 5825 5823 5822 5820 5818 5816 5814 5812 5809 5807 5805 5802 5799 5798 5795 5792 5789 5786 5783 5781 5779
5820 5820 5821 5821 5822 5823 5823 5824 5824 5825 5825 5824 5824 5824 5824 5823 5823 5822 5821 5819 5818 5816 5814 5812 5811 5808 5806 5804 5802 5799 5797 5794 5792 5789 5786 5784 5781 5778 5776 5772 5769 5766 5764
5814 5815 5815 5815 5815 5816 5817 5817 5817 5817 5817 5817 5816 5816 5815 5814 5813 5812 5811 5809 5807 5805 5803 5801 5799 5797 5794 5791 5789 5786 5783 5780 5778 5775 5772 5769 5766 5763 5761 5758 5754 5750 5747